{"data":{"norad_id":46506,"epoch":"2026-09-20T00:14:37.982976Z","epoch_age_seconds":56692,"freshness":"FRESH","line1":"1 46506U 20068W   26263.01016184  .00009183  00000+0  25953-3 0  9994","line2":"2 46506  97.8792 270.3479 0005750  51.1290 309.0465 15.36579235329852","mean_motion":15.36579235,"eccentricity":0.000575,"inclination_deg":97.8792,"raan_deg":270.3479,"arg_perigee_deg":51.129,"mean_anomaly_deg":309.0465,"bstar":0.00025953,"rev_number":32985,"period_min":93.71465962834,"perigee_km":452.30398767085,"apogee_km":460.16351403433,"semimajor_km":6834.3707508526,"source":"CELESTRAK","updated_at":"2026-09-20T09:00:48.034746Z"}}